,,PA_Meas_PMT16A,,PR_Meas_QMR101_102,,RH_Meas_QMH101,,SR_Meas_QMS101,,TA_Meas_QMH101,,GenWind,,GenWind,
time,status,PA,status,PR,status,RH,status,SR,status,TA,status,DirAvg,status,SpdAvg,
2011-07-22, 00:00:04,VALID,918.253,VALID,0,VALID,95.0106,VALID,0,VALID,20.7544,VALID,23,VALID,0.282813,
2011-07-22, 00:01:04,VALID,918.237,VALID,0,VALID,94.9496,VALID,0,VALID,20.7544,VALID,23,VALID,0.21875,
2011-07-22, 00:02:04,VALID,918.23,VALID,0,VALID,94.9573,VALID,0.107441,VALID,20.7934,VALID,23,VALID,0.179297,
2011-07-22, 00:03:04,VALID,918.254,VALID,0,VALID,94.9496,VALID,0.107441,VALID,20.7723,VALID,23,VALID,0.124219,
2011-07-22, 00:04:04,VALID,918.234,VALID,0,VALID,94.9496,VALID,0.107441,VALID,20.7934,VALID,23,VALID,0.15,
2011-07-22, 00:05:04,VALID,918.224,VALID,0,VALID,94.9192,VALID,0,VALID,20.7723,VALID,23,VALID,0.265625,
2011-07-22, 00:06:04,VALID,918.189,VALID,0,VALID,94.9344,VALID,0.107441,VALID,20.8129,VALID,23,VALID,0.544141,
2011-07-22, 00:07:04,VALID,918.195,VALID,0,VALID,94.82,VALID,0,VALID,20.7934,VALID,23,VALID,0.549609,
2011-07-22, 00:08:04,VALID,918.129,VALID,0,VALID,94.8124,VALID,0,VALID,20.7723,VALID,23,VALID,0.417578,
2011-07-22, 00:09:04,VALID,918.122,VALID,0,VALID,94.7743,VALID,0.107441,VALID,20.7723,VALID,23,VALID,0.502344,
2011-07-22, 00:10:04,VALID,918.06,VALID,0,VALID,94.6752,VALID,0,VALID,20.7528,VALID,23,VALID,0.658203,
2011-07-22, 00:11:04,VALID,917.99,VALID,0,VALID,94.4694,VALID,0,VALID,20.6748,VALID,23,VALID,1.00781,
2011-07-22, 00:12:04,VALID,917.935,VALID,0,VALID,94.2864,VALID,0.107441,VALID,20.6163,VALID,23,VALID,1.29922,
2011-07-22, 00:13:04,VALID,917.889,VALID,0,VALID,94.4389,VALID,0.107441,VALID,20.5594,VALID,23,VALID,1.27539,
2011-07-22, 00:14:04,VALID,917.869,VALID,0,VALID,94.5456,VALID,0.107441,VALID,20.4603,VALID,23,VALID,1.00742,
2011-07-22, 00:15:04,VALID,917.86,VALID,0,VALID,94.6828,VALID,0.107441,VALID,20.3823,VALID,23,VALID,0.726172,
2011-07-22, 00:16:04,VALID,917.857,VALID,0,VALID,94.8429,VALID,0.107441,VALID,20.3433,VALID,23,VALID,0.275391,
2011-07-22, 00:17:04,VALID,917.803,VALID,0,VALID,95.0106,VALID,0,VALID,20.3269,VALID,23,VALID,0.525391,
2011-07-22, 00:18:04,VALID,917.805,VALID,0,VALID,95.186,VALID,0,VALID,20.2879,VALID,23,VALID,0.346094,
2011-07-22, 00:19:05,VALID,917.784,VALID,0,VALID,95.2775,VALID,0,VALID,20.2684,VALID,23,VALID,0.608984,
2011-07-22, 00:20:05,VALID,917.757,VALID,0,VALID,95.4299,VALID,0,VALID,20.2473,VALID,23,VALID,0.471875,
2011-07-22, 00:21:05,VALID,917.77,VALID,0,VALID,95.5748,VALID,0,VALID,20.2879,VALID,23,VALID,0.174219,
2011-07-22, 00:22:04,VALID,917.805,VALID,0,VALID,95.6815,VALID,0,VALID,20.2653,VALID,23,VALID,0,
2011-07-22, 00:23:05,VALID,917.795,VALID,0,VALID,95.7501,VALID,0.107441,VALID,20.2863,VALID,23,VALID,0,
2011-07-22, 00:24:05,VALID,917.852,VALID,0,VALID,95.8111,VALID,0,VALID,20.2442,VALID,23,VALID,0,
2011-07-22, 00:25:05,VALID,917.827,VALID,0,VALID,95.7577,VALID,0,VALID,20.2473,VALID,23,VALID,0,
2011-07-22, 00:26:05,VALID,917.821,VALID,0,VALID,95.8111,VALID,0,VALID,20.2879,VALID,23,VALID,0.0730469,
2011-07-22, 00:27:05,VALID,917.821,VALID,0,VALID,95.8492,VALID,0,VALID,20.3284,VALID,23,VALID,0,
2011-07-22, 00:28:05,VALID,917.778,VALID,0,VALID,95.9026,VALID,0.107441,VALID,20.3269,VALID,23,VALID,0,
2011-07-22, 00:29:05,VALID,917.702,VALID,0,VALID,95.9559,VALID,0,VALID,20.3043,VALID,23,VALID,0.423047,
2011-07-22, 00:30:05,VALID,917.639,VALID,0,VALID,95.7425,VALID,0.107441,VALID,20.3058,VALID,23,VALID,0.646875,
2011-07-22, 00:31:05,VALID,917.587,VALID,0,VALID,95.7577,VALID,0,VALID,20.3058,VALID,23,VALID,0.760938,
2011-07-22, 00:32:05,VALID,917.549,VALID,0,VALID,95.8035,VALID,0,VALID,20.3058,VALID,23,VALID,0.65,
2011-07-22, 00:33:05,VALID,917.527,VALID,0,VALID,95.712,VALID,0,VALID,20.2668,VALID,23,VALID,0.296094,
2011-07-22, 00:34:05,VALID,917.524,VALID,0,VALID,95.773,VALID,0,VALID,20.2458,VALID,23,VALID,0.00117188,
2011-07-22, 00:35:05,VALID,917.497,VALID,0,VALID,95.8797,VALID,0,VALID,20.2863,VALID,23,VALID,0.235156,
2011-07-22, 00:36:05,VALID,917.469,VALID,0,VALID,95.8568,VALID,0,VALID,20.2863,VALID,23,VALID,0.344531,
2011-07-22, 00:37:05,VALID,917.446,VALID,0,VALID,95.8797,VALID,0,VALID,20.2668,VALID,23,VALID,0.132422,
2011-07-22, 00:38:05,VALID,917.443,VALID,0,VALID,95.8797,VALID,0,VALID,20.2863,VALID,23,VALID,0,
2011-07-22, 00:39:05,VALID,917.407,VALID,0,VALID,95.8797,VALID,0,VALID,20.2863,VALID,23,VALID,0.0417969,
2011-07-22, 00:40:05,VALID,917.403,VALID,0,VALID,95.8721,VALID,0,VALID,20.2863,VALID,23,VALID,0.3875,
2011-07-22, 00:41:05,VALID,917.408,VALID,0,VALID,95.8797,VALID,0,VALID,20.2668,VALID,23,VALID,0.496094,
2011-07-22, 00:42:05,VALID,917.405,VALID,0,VALID,95.8645,VALID,0,VALID,20.2278,VALID,23,VALID,0.739062,
2011-07-22, 00:43:05,VALID,917.414,VALID,0,VALID,95.8187,VALID,0,VALID,20.2083,VALID,23,VALID,0.574219,
2011-07-22, 00:44:05,VALID,917.425,VALID,0,VALID,95.8263,VALID,0,VALID,20.1483,VALID,23,VALID,0.431641,
2011-07-22, 00:45:05,VALID,917.406,VALID,0,VALID,95.8492,VALID,0,VALID,20.1288,VALID,23,VALID,0.413281,
2011-07-22, 00:46:05,VALID,917.352,VALID,0,VALID,95.9026,VALID,0,VALID,20.1288,VALID,23,VALID,0.454297,
2011-07-22, 00:47:05,VALID,917.389,VALID,0,VALID,95.9559,VALID,0,VALID,20.1288,VALID,23,VALID,0.00195313,
2011-07-22, 00:48:05,VALID,917.352,VALID,0,VALID,95.834,VALID,0,VALID,20.0898,VALID,23,VALID,0,
2011-07-22, 00:49:05,VALID,917.38,VALID,0,VALID,95.7425,VALID,0,VALID,20.0313,VALID,23,VALID,0,
2011-07-22, 00:50:05,VALID,917.37,VALID,0,VALID,95.6586,VALID,0,VALID,19.9938,VALID,23,VALID,0,
2011-07-22, 00:51:05,VALID,917.374,VALID,0,VALID,95.7425,VALID,0,VALID,19.9938,VALID,23,VALID,0.283203,
2011-07-22, 00:52:05,VALID,917.377,VALID,0,VALID,95.8111,VALID,0,VALID,19.9938,VALID,23,VALID,0.391016,
2011-07-22, 00:53:05,VALID,917.385,VALID,0,VALID,95.834,VALID,0,VALID,20.0163,VALID,23,VALID,0.575391,
2011-07-22, 00:54:05,VALID,917.353,VALID,0,VALID,95.9788,VALID,0,VALID,20.0118,VALID,23,VALID,0.528516,
2011-07-22, 00:55:05,VALID,917.357,VALID,0,VALID,96.055,VALID,0,VALID,20.0313,VALID,22,VALID,0.626953,
2011-07-22, 00:56:05,VALID,917.31,VALID,0,VALID,96.1008,VALID,0,VALID,20.0944,VALID,22,VALID,0.658984,
2011-07-22, 00:57:05,VALID,917.271,VALID,0,VALID,96.1465,VALID,0,VALID,20.0493,VALID,22,VALID,0.501953,
2011-07-22, 00:58:05,VALID,917.265,VALID,0,VALID,96.2151,VALID,0,VALID,20.1513,VALID,22,VALID,0.769531,
2011-07-22, 00:59:05,VALID,917.212,VALID,0,VALID,96.2609,VALID,0,VALID,20.1498,VALID,21,VALID,0.822266,
2011-07-22, 01:00:05,VALID,917.227,VALID,0,VALID,96.3295,VALID,0,VALID,20.2083,VALID,19,VALID,0.933594,
2011-07-22, 01:01:05,VALID,917.212,VALID,0,VALID,96.3524,VALID,0,VALID,20.2278,VALID,19,VALID,0.763672,
2011-07-22, 01:02:05,VALID,917.254,VALID,0,VALID,96.3829,VALID,0,VALID,20.2684,VALID,19,VALID,0.975,
2011-07-22, 01:03:05,VALID,917.244,VALID,0,VALID,96.3829,VALID,0,VALID,20.2473,VALID,19,VALID,0.732422,
2011-07-22, 01:04:05,VALID,917.227,VALID,0,VALID,96.3829,VALID,0,VALID,20.2473,VALID,19,VALID,0.428516,
2011-07-22, 01:05:05,VALID,917.223,VALID,0,VALID,96.299,VALID,0,VALID,20.2083,VALID,19,VALID,0.781641,
2011-07-22, 01:06:05,VALID,917.186,VALID,0,VALID,96.3219,VALID,0,VALID,20.1483,VALID,18,VALID,0.630078,
2011-07-22, 01:07:05,VALID,917.136,VALID,0,VALID,96.36,VALID,0,VALID,20.1888,VALID,18,VALID,0.407422,
2011-07-22, 01:08:05,VALID,917.097,VALID,0,VALID,96.4362,VALID,0,VALID,20.2083,VALID,18,VALID,0.680859,
2011-07-22, 01:09:05,VALID,917.094,VALID,0,VALID,96.421,VALID,0,VALID,20.2489,VALID,18,VALID,0.426562,
2011-07-22, 01:10:05,VALID,917.061,VALID,0,VALID,96.4438,VALID,0.107441,VALID,20.2278,VALID,18,VALID,0.114453,
2011-07-22, 01:11:05,VALID,917.07,VALID,0,VALID,96.4972,VALID,0,VALID,20.2684,VALID,18,VALID,0.408594,
2011-07-22, 01:12:05,VALID,917.102,VALID,0,VALID,96.5048,VALID,0,VALID,20.3058,VALID,18,VALID,0.000390625,
2011-07-22, 01:13:05,VALID,917.125,VALID,0,VALID,96.4972,VALID,0,VALID,20.3058,VALID,18,VALID,0.542188,
2011-07-22, 01:14:05,VALID,917.162,VALID,0,VALID,96.4896,VALID,0,VALID,20.3074,VALID,18,VALID,0.6,
2011-07-22, 01:15:05,VALID,917.138,VALID,0,VALID,96.4972,VALID,0,VALID,20.3058,VALID,18,VALID,0.264453,
2011-07-22, 01:16:05,VALID,917.14,VALID,0,VALID,96.5124,VALID,0,VALID,20.3253,VALID,18,VALID,0,
2011-07-22, 01:17:05,VALID,917.11,VALID,0,VALID,96.4743,VALID,0,VALID,20.3253,VALID,18,VALID,0.233984,
2011-07-22, 01:18:05,VALID,917.079,VALID,0,VALID,96.4743,VALID,0,VALID,20.2848,VALID,18,VALID,0.251172,
2011-07-22, 01:19:05,VALID,917.042,VALID,0,VALID,96.4515,VALID,0,VALID,20.3269,VALID,18,VALID,0.492969,
2011-07-22, 01:20:05,VALID,917.025,VALID,0,VALID,96.3829,VALID,0,VALID,20.2668,VALID,18,VALID,0.784766,
2011-07-22, 01:21:05,VALID,917.024,VALID,0,VALID,96.2304,VALID,0,VALID,20.1693,VALID,18,VALID,0.532031,
2011-07-22, 01:22:05,VALID,917.051,VALID,0,VALID,96.2151,VALID,0,VALID,20.1123,VALID,18,VALID,0.644531,
2011-07-22, 01:23:05,VALID,916.997,VALID,0,VALID,96.2685,VALID,0,VALID,20.0313,VALID,18,VALID,0.641406,
2011-07-22, 01:24:05,VALID,917.014,VALID,0,VALID,96.2304,VALID,0,VALID,20.0163,VALID,18,VALID,0.712109,
2011-07-22, 01:25:05,VALID,917.021,VALID,0,VALID,96.2304,VALID,0,VALID,19.9368,VALID,18,VALID,0.782422,
2011-07-22, 01:26:05,VALID,917.005,VALID,0,VALID,96.2609,VALID,0,VALID,19.8768,VALID,18,VALID,0.823828,
2011-07-22, 01:27:05,VALID,916.961,VALID,0,VALID,96.3447,VALID,0,VALID,19.8573,VALID,18,VALID,0.908594,
2011-07-22, 01:28:05,VALID,916.943,VALID,0,VALID,96.3981,VALID,0,VALID,19.8363,VALID,18,VALID,0.689062,
2011-07-22, 01:29:05,VALID,916.921,VALID,0,VALID,96.4591,VALID,0,VALID,19.8573,VALID,18,VALID,0.738281,
2011-07-22, 01:30:05,VALID,916.895,VALID,0,VALID,96.5124,VALID,0.107441,VALID,19.8768,VALID,18,VALID,0.54375,
2011-07-22, 01:31:05,VALID,916.914,VALID,0,VALID,96.5506,VALID,0,VALID,19.9173,VALID,18,VALID,0.651172,
2011-07-22, 01:32:05,VALID,916.935,VALID,0,VALID,96.5353,VALID,0,VALID,19.8768,VALID,18,VALID,0.657812,
2011-07-22, 01:33:05,VALID,916.974,VALID,0,VALID,96.5506,VALID,0,VALID,19.8783,VALID,19,VALID,0.781641,
2011-07-22, 01:34:05,VALID,916.986,VALID,0,VALID,96.5811,VALID,0,VALID,19.8573,VALID,19,VALID,0.871484,
2011-07-22, 01:35:05,VALID,917.043,VALID,0,VALID,96.6497,VALID,0,VALID,19.8768,VALID,19,VALID,0.627734,
2011-07-22, 01:36:05,VALID,917.068,VALID,0,VALID,96.6497,VALID,0,VALID,19.8963,VALID,19,VALID,0.626953,
2011-07-22, 01:37:05,VALID,917.111,VALID,0,VALID,96.6649,VALID,0,VALID,19.8963,VALID,18,VALID,0.520703,
2011-07-22, 01:38:05,VALID,917.104,VALID,0,VALID,96.6344,VALID,0,VALID,19.8768,VALID,19,VALID,0.577344,
2011-07-22, 01:39:05,VALID,917.179,VALID,0,VALID,96.6497,VALID,0,VALID,19.8768,VALID,18,VALID,0.753516,
2011-07-22, 01:40:05,VALID,917.16,VALID,0,VALID,96.6954,VALID,0,VALID,19.8978,VALID,18,VALID,0.983594,
2011-07-22, 01:41:05,VALID,917.187,VALID,0,VALID,96.7411,VALID,0,VALID,19.8963,VALID,19,VALID,0.691406,
2011-07-22, 01:42:05,VALID,917.173,VALID,0,VALID,96.764,VALID,0,VALID,19.9368,VALID,18,VALID,0.729688,
2011-07-22, 01:43:05,VALID,917.185,VALID,0,VALID,96.7716,VALID,0,VALID,19.9353,VALID,18,VALID,0.807031,
2011-07-22, 01:44:05,VALID,917.154,VALID,0,VALID,96.6725,VALID,0,VALID,19.9368,VALID,18,VALID,0.880859,
2011-07-22, 01:45:05,VALID,917.138,VALID,0,VALID,96.6573,VALID,0,VALID,19.8558,VALID,18,VALID,0.783203,
2011-07-22, 01:46:05,VALID,917.141,VALID,0,VALID,96.642,VALID,0,VALID,19.7958,VALID,18,VALID,0.672656,
2011-07-22, 01:47:05,VALID,917.092,VALID,0,VALID,96.6725,VALID,0,VALID,19.8378,VALID,18,VALID,0.732422,
2011-07-22, 01:48:05,VALID,917.081,VALID,0,VALID,96.6878,VALID,0,VALID,19.8183,VALID,18,VALID,1.09727,
2011-07-22, 01:49:05,VALID,917.059,VALID,0,VALID,96.7869,VALID,0,VALID,19.8378,VALID,18,VALID,1.35,
2011-07-22, 01:50:05,VALID,917.02,VALID,0,VALID,96.7869,VALID,0,VALID,19.8168,VALID,19,VALID,1.49688,
2011-07-22, 01:51:05,VALID,917.015,VALID,0,VALID,96.8326,VALID,0,VALID,19.8393,VALID,18,VALID,0.847266,
2011-07-22, 01:52:05,VALID,917.052,VALID,0,VALID,96.8784,VALID,0,VALID,19.8768,VALID,18,VALID,0.377734,
2011-07-22, 01:53:05,VALID,917.03,VALID,0,VALID,96.8707,VALID,0,VALID,19.8768,VALID,19,VALID,0.141016,
2011-07-22, 01:54:05,VALID,917.057,VALID,0,VALID,96.8479,VALID,0,VALID,19.8768,VALID,18,VALID,0.140625,
2011-07-22, 01:55:05,VALID,917.089,VALID,0,VALID,96.8707,VALID,0,VALID,19.9188,VALID,18,VALID,0.487891,
2011-07-22, 01:56:05,VALID,917.064,VALID,0,VALID,96.8479,VALID,0,VALID,19.8573,VALID,18,VALID,0.514453,
2011-07-22, 01:57:05,VALID,917.038,VALID,0,VALID,96.8784,VALID,0,VALID,19.8588,VALID,18,VALID,0.597266,
2011-07-22, 01:58:05,VALID,917.011,VALID,0,VALID,96.9317,VALID,0,VALID,19.8363,VALID,19,VALID,0.966406,
2011-07-22, 01:59:05,VALID,916.976,VALID,0,VALID,96.8403,VALID,0,VALID,19.8798,VALID,19,VALID,0.942969,
2011-07-22, 02:00:05,VALID,916.912,VALID,0,VALID,96.886,VALID,0,VALID,19.8363,VALID,18,VALID,0.920703,
2011-07-22, 02:01:05,VALID,916.891,VALID,0,VALID,96.9089,VALID,0,VALID,19.8573,VALID,18,VALID,0.367578,
2011-07-22, 02:02:05,VALID,916.826,VALID,0,VALID,96.9012,VALID,0.107441,VALID,19.8168,VALID,19,VALID,0.471094,
2011-07-22, 02:03:05,VALID,916.798,VALID,0,VALID,96.8936,VALID,0,VALID,19.8393,VALID,19,VALID,0.563672,
2011-07-22, 02:04:05,VALID,916.821,VALID,0,VALID,96.8707,VALID,0,VALID,19.8198,VALID,18,VALID,0.805859,
2011-07-22, 02:05:05,VALID,916.824,VALID,0,VALID,96.8631,VALID,0,VALID,19.7193,VALID,18,VALID,0.894531,
2011-07-22, 02:06:05,VALID,916.81,VALID,0,VALID,96.8784,VALID,0,VALID,19.7178,VALID,18,VALID,0.470313,
2011-07-22, 02:07:05,VALID,916.844,VALID,0,VALID,96.9698,VALID,0,VALID,19.7598,VALID,19,VALID,0.561328,
2011-07-22, 02:08:05,VALID,916.855,VALID,0,VALID,96.8784,VALID,0,VALID,19.6998,VALID,18,VALID,0.631641,
2011-07-22, 02:09:05,VALID,916.846,VALID,0,VALID,96.9165,VALID,0,VALID,19.6398,VALID,18,VALID,0.586719,
2011-07-22, 02:10:05,VALID,916.81,VALID,0,VALID,96.9851,VALID,0,VALID,19.7223,VALID,18,VALID,0.557813,
2011-07-22, 02:11:05,VALID,916.797,VALID,0,VALID,96.947,VALID,0,VALID,19.6608,VALID,18,VALID,0.542578,
2011-07-22, 02:12:05,VALID,916.752,VALID,0,VALID,96.947,VALID,0,VALID,19.6833,VALID,18,VALID,0.438672,
2011-07-22, 02:13:05,VALID,916.733,VALID,0,VALID,97.0232,VALID,0,VALID,19.6398,VALID,18,VALID,0.228125,
2011-07-22, 02:14:05,VALID,916.741,VALID,0,VALID,96.947,VALID,0,VALID,19.6818,VALID,18,VALID,0.424219,
2011-07-22, 02:15:05,VALID,916.737,VALID,0,VALID,96.947,VALID,0,VALID,19.6638,VALID,18,VALID,0.307813,
2011-07-22, 02:16:05,VALID,916.748,VALID,0,VALID,96.9927,VALID,0,VALID,19.6638,VALID,18,VALID,0.108203,
2011-07-22, 02:17:05,VALID,916.731,VALID,0,VALID,97.0537,VALID,0,VALID,19.6833,VALID,18,VALID,0.0265625,
2011-07-22, 02:18:05,VALID,916.729,VALID,0,VALID,97.0308,VALID,0,VALID,19.6833,VALID,18,VALID,0.51875,
2011-07-22, 02:19:05,VALID,916.733,VALID,0,VALID,97.0766,VALID,0,VALID,19.6803,VALID,18,VALID,0.139453,
2011-07-22, 02:20:05,VALID,916.715,VALID,0,VALID,97.0842,VALID,0,VALID,19.6563,VALID,18,VALID,0.525781,
2011-07-22, 02:21:05,VALID,916.707,VALID,0,VALID,97.1147,VALID,0,VALID,19.7193,VALID,18,VALID,0.719531,
2011-07-22, 02:22:05,VALID,916.756,VALID,0,VALID,97.0918,VALID,0,VALID,19.8228,VALID,18,VALID,0.873047,
2011-07-22, 02:23:05,VALID,916.776,VALID,0,VALID,97.0003,VALID,0,VALID,19.6593,VALID,18,VALID,0.675781,
2011-07-22, 02:24:05,VALID,916.739,VALID,0,VALID,96.9241,VALID,0,VALID,19.6833,VALID,18,VALID,0.915234,
2011-07-22, 02:25:05,VALID,916.743,VALID,0,VALID,96.9546,VALID,0,VALID,19.6248,VALID,18,VALID,0.896484,
2011-07-22, 02:26:05,VALID,916.767,VALID,0,VALID,97.008,VALID,0,VALID,19.6038,VALID,18,VALID,0.88125,
2011-07-22, 02:27:05,VALID,916.76,VALID,0,VALID,96.9394,VALID,0,VALID,19.5648,VALID,18,VALID,1.23555,
2011-07-22, 02:28:05,VALID,916.763,VALID,0,VALID,97.0003,VALID,0.107441,VALID,19.5453,VALID,18,VALID,1.03359,
2011-07-22, 02:29:05,VALID,916.765,VALID,0,VALID,97.0461,VALID,0,VALID,19.5453,VALID,18,VALID,0.853516,
2011-07-22, 02:30:05,VALID,916.783,VALID,0,VALID,97.0232,VALID,0,VALID,19.5663,VALID,18,VALID,0.708203,
2011-07-22, 02:31:05,VALID,916.794,VALID,0,VALID,97.0385,VALID,0,VALID,19.5468,VALID,18,VALID,0.649609,
2011-07-22, 02:32:05,VALID,916.774,VALID,0,VALID,97.0461,VALID,0,VALID,19.5048,VALID,18,VALID,0.170312,
2011-07-22, 02:33:05,VALID,916.77,VALID,0,VALID,97.0994,VALID,0,VALID,19.5258,VALID,18,VALID,0,
2011-07-22, 02:34:05,VALID,916.804,VALID,0,VALID,97.1299,VALID,0.107441,VALID,19.5048,VALID,18,VALID,0.732422,
2011-07-22, 02:35:05,VALID,916.797,VALID,0,VALID,97.0232,VALID,0,VALID,19.4673,VALID,18,VALID,0.297266,
2011-07-22, 02:36:05,VALID,916.84,VALID,0,VALID,97.0613,VALID,0,VALID,19.4868,VALID,18,VALID,0,
2011-07-22, 02:37:05,VALID,916.897,VALID,0,VALID,97.0613,VALID,0,VALID,19.4074,VALID,18,VALID,0,
2011-07-22, 02:38:05,VALID,916.878,VALID,0,VALID,97.069,VALID,0,VALID,19.3879,VALID,18,VALID,0.0917969,
2011-07-22, 02:39:05,VALID,916.857,VALID,0,VALID,97.0842,VALID,0,VALID,19.3893,VALID,18,VALID,0.0960938,
2011-07-22, 02:40:05,VALID,916.806,VALID,0,VALID,97.0461,VALID,0,VALID,19.3698,VALID,18,VALID,0,
2011-07-22, 02:41:05,VALID,916.77,VALID,0,VALID,97.1223,VALID,0,VALID,19.3893,VALID,18,VALID,0.2625,
2011-07-22, 02:42:05,VALID,916.709,VALID,0,VALID,97.1376,VALID,0,VALID,19.4313,VALID,18,VALID,0.419141,
2011-07-22, 02:43:05,VALID,916.685,VALID,0,VALID,97.1071,VALID,0,VALID,19.3698,VALID,18,VALID,0.276172,
2011-07-22, 02:44:05,VALID,916.656,VALID,0,VALID,97.0842,VALID,0,VALID,19.3294,VALID,18,VALID,0.0121094,
2011-07-22, 02:45:05,VALID,916.628,VALID,0,VALID,97.0842,VALID,0,VALID,19.3503,VALID,18,VALID,0.0636719,
2011-07-22, 02:46:05,VALID,916.659,VALID,0,VALID,97.0537,VALID,0,VALID,19.3518,VALID,18,VALID,0,
2011-07-22, 02:47:05,VALID,916.686,VALID,0,VALID,97.0461,VALID,0,VALID,19.3338,VALID,18,VALID,0,
2011-07-22, 02:48:05,VALID,916.678,VALID,0,VALID,97.069,VALID,0,VALID,19.2933,VALID,18,VALID,0,
2011-07-22, 02:49:05,VALID,916.713,VALID,0,VALID,97.0918,VALID,0,VALID,19.2334,VALID,18,VALID,0,
2011-07-22, 02:50:05,VALID,916.708,VALID,0,VALID,97.0994,VALID,0,VALID,19.2334,VALID,18,VALID,0,
2011-07-22, 02:51:05,VALID,916.695,VALID,0,VALID,97.1071,VALID,0,VALID,19.2139,VALID,18,VALID,0.317969,
2011-07-22, 02:52:05,VALID,916.649,VALID,0,VALID,97.1223,VALID,0,VALID,19.2153,VALID,18,VALID,0.523828,
2011-07-22, 02:53:05,VALID,916.642,VALID,0,VALID,97.1071,VALID,0,VALID,19.1763,VALID,18,VALID,0.744141,
2011-07-22, 02:54:05,VALID,916.608,VALID,0,VALID,97.0461,VALID,0,VALID,19.0969,VALID,18,VALID,0.822656,
2011-07-22, 02:55:05,VALID,916.59,VALID,0,VALID,97.0385,VALID,0,VALID,19.0788,VALID,18,VALID,0.759766,
2011-07-22, 02:56:05,VALID,916.598,VALID,0,VALID,97.069,VALID,0,VALID,19.0203,VALID,18,VALID,0.489844,
2011-07-22, 02:57:05,VALID,916.59,VALID,0,VALID,97.0994,VALID,0,VALID,19.0413,VALID,19,VALID,0.131641,
2011-07-22, 02:58:05,VALID,916.59,VALID,0,VALID,97.1376,VALID,0,VALID,19.0427,VALID,18,VALID,0.0792969,
2011-07-22, 02:59:05,VALID,916.599,VALID,0,VALID,97.1071,VALID,0,VALID,18.9604,VALID,18,VALID,0.0839844,
2011-07-22, 03:00:05,VALID,916.671,VALID,0,VALID,97.1299,VALID,0,VALID,18.9814,VALID,18,VALID,0,
2011-07-22, 03:01:05,VALID,916.685,VALID,0,VALID,97.1909,VALID,0,VALID,18.9604,VALID,18,VALID,0,
2011-07-22, 03:02:05,VALID,916.7,VALID,0,VALID,97.1909,VALID,0,VALID,18.938,VALID,18,VALID,0.621875,
2011-07-22, 03:03:05,VALID,916.717,VALID,0,VALID,97.1604,VALID,0,VALID,18.9186,VALID,18,VALID,0.678516,
2011-07-22, 03:04:04,VALID,916.749,VALID,0,VALID,97.1528,VALID,0,VALID,18.9214,VALID,18,VALID,0.850781,
2011-07-22, 03:05:04,VALID,916.828,VALID,0,VALID,97.1833,VALID,0,VALID,18.9619,VALID,18,VALID,0.565625,
2011-07-22, 03:06:04,VALID,916.878,VALID,0,VALID,97.2062,VALID,0,VALID,18.9619,VALID,18,VALID,0.44375,
2011-07-22, 03:07:04,VALID,916.931,VALID,0,VALID,97.2519,VALID,0,VALID,18.9619,VALID,18,VALID,0.028125,
2011-07-22, 03:08:04,VALID,916.989,VALID,0,VALID,97.2977,VALID,0,VALID,19.0203,VALID,18,VALID,0.198828,
2011-07-22, 03:09:04,VALID,916.993,VALID,0,VALID,97.3129,VALID,0,VALID,19.0593,VALID,18,VALID,0.25625,
2011-07-22, 03:10:04,VALID,917.005,VALID,0,VALID,97.3129,VALID,0,VALID,19.0983,VALID,19,VALID,0.229297,
2011-07-22, 03:11:04,VALID,916.984,VALID,0,VALID,97.3053,VALID,0,VALID,19.0983,VALID,18,VALID,0.833594,
2011-07-22, 03:12:04,VALID,916.951,VALID,0,VALID,97.3205,VALID,0,VALID,19.1583,VALID,18,VALID,0.408203,
2011-07-22, 03:13:04,VALID,916.987,VALID,0,VALID,97.3205,VALID,0,VALID,19.1568,VALID,18,VALID,0.269922,
2011-07-22, 03:14:04,VALID,916.984,VALID,0,VALID,97.3053,VALID,0,VALID,19.1749,VALID,18,VALID,0.0503906,
2011-07-22, 03:15:04,VALID,917.03,VALID,0,VALID,97.2977,VALID,0,VALID,19.1749,VALID,18,VALID,0.0953125,
2011-07-22, 03:16:04,VALID,917.038,VALID,0,VALID,97.2977,VALID,0,VALID,19.2153,VALID,18,VALID,0,
2011-07-22, 03:17:04,VALID,917.018,VALID,0,VALID,97.2977,VALID,0,VALID,19.2348,VALID,18,VALID,0,
2011-07-22, 03:18:04,VALID,916.979,VALID,0,VALID,97.229,VALID,0,VALID,19.1958,VALID,18,VALID,0,
2011-07-22, 03:19:04,VALID,916.913,VALID,0,VALID,97.1909,VALID,0,VALID,19.1178,VALID,18,VALID,0.525781,
2011-07-22, 03:20:04,VALID,916.896,VALID,0,VALID,97.1604,VALID,0,VALID,19.0593,VALID,18,VALID,0.476563,
2011-07-22, 03:21:04,VALID,916.841,VALID,0,VALID,97.1299,VALID,0,VALID,18.9814,VALID,18,VALID,0.65,
2011-07-22, 03:22:04,VALID,916.827,VALID,0,VALID,97.2138,VALID,0,VALID,18.9814,VALID,18,VALID,0.753516,
2011-07-22, 03:23:04,VALID,916.828,VALID,0,VALID,97.2138,VALID,0,VALID,18.9619,VALID,19,VALID,0.577344,
2011-07-22, 03:24:04,VALID,916.852,VALID,0,VALID,97.229,VALID,0,VALID,18.9619,VALID,18,VALID,0.591406,
2011-07-22, 03:25:04,VALID,916.885,VALID,0,VALID,97.2748,VALID,0,VALID,18.9424,VALID,19,VALID,0.367969,
2011-07-22, 03:26:04,VALID,916.954,VALID,0,VALID,97.1833,VALID,0,VALID,18.8839,VALID,19,VALID,0.625,
2011-07-22, 03:27:04,VALID,916.977,VALID,0,VALID,97.2367,VALID,0,VALID,18.8644,VALID,19,VALID,0.546094,
2011-07-22, 03:28:04,VALID,917.033,VALID,0,VALID,97.1528,VALID,0,VALID,18.8059,VALID,19,VALID,0.528516,
2011-07-22, 03:29:04,VALID,917.059,VALID,0,VALID,97.1681,VALID,0,VALID,18.7669,VALID,18,VALID,0.769922,
2011-07-22, 03:30:04,VALID,917.048,VALID,0,VALID,97.2214,VALID,0,VALID,18.7474,VALID,18,VALID,0.6,
2011-07-22, 03:31:04,VALID,917.066,VALID,0,VALID,97.1986,VALID,0,VALID,18.7279,VALID,19,VALID,0.253516,
2011-07-22, 03:32:04,VALID,917.059,VALID,0,VALID,97.2595,VALID,0,VALID,18.7293,VALID,18,VALID,0.0578125,
2011-07-22, 03:33:04,VALID,917.068,VALID,0,VALID,97.29,VALID,0,VALID,18.7279,VALID,19,VALID,0,
2011-07-22, 03:34:04,VALID,917.021,VALID,0,VALID,97.2824,VALID,0,VALID,18.7265,VALID,18,VALID,0,
2011-07-22, 03:35:04,VALID,916.964,VALID,0,VALID,97.3129,VALID,0,VALID,18.7279,VALID,19,VALID,0,
2011-07-22, 03:36:04,VALID,916.931,VALID,0,VALID,97.3358,VALID,0,VALID,18.7488,VALID,18,VALID,0.489062,
2011-07-22, 03:37:04,VALID,916.932,VALID,0,VALID,97.3205,VALID,0,VALID,18.7474,VALID,19,VALID,0.61875,
2011-07-22, 03:38:04,VALID,916.896,VALID,0,VALID,97.3739,VALID,0,VALID,18.7669,VALID,19,VALID,0.868359,
2011-07-22, 03:39:04,VALID,916.841,VALID,0,VALID,97.3586,VALID,0,VALID,18.7669,VALID,19,VALID,0.551172,
2011-07-22, 03:40:04,VALID,916.836,VALID,0,VALID,97.3434,VALID,0,VALID,18.7669,VALID,19,VALID,0.455469,
2011-07-22, 03:41:04,VALID,916.792,VALID,0,VALID,97.3815,VALID,0,VALID,18.7864,VALID,19,VALID,0.899609,
2011-07-22, 03:42:04,VALID,916.821,VALID,0,VALID,97.3739,VALID,0,VALID,18.8059,VALID,19,VALID,0.746094,
2011-07-22, 03:43:04,VALID,916.854,VALID,0,VALID,97.412,VALID,0,VALID,18.8254,VALID,19,VALID,0.330859,
2011-07-22, 03:44:04,VALID,916.86,VALID,0,VALID,97.4044,VALID,0,VALID,18.8449,VALID,19,VALID,0.627344,
2011-07-22, 03:45:04,VALID,916.881,VALID,0,VALID,97.3968,VALID,0,VALID,18.8644,VALID,19,VALID,0.644141,
2011-07-22, 03:46:04,VALID,916.893,VALID,0,VALID,97.3815,VALID,0,VALID,18.8449,VALID,19,VALID,0.163672,
2011-07-22, 03:47:04,VALID,916.883,VALID,0,VALID,97.3891,VALID,0,VALID,18.8644,VALID,19,VALID,0.0488281,